Wind_Speed
20 21 22 22 22 22 23 24 26 26 26 27 28 28 26 26 26 28 28 28 28 29 29 29 29 30 30 30 30 30 30 30 30 30 30 30 30 30 31 31 31 31 32
21 22 23 23 23 23 24 24 26 26 26 26 27 27 25 26 28 29 28 28 29 29 29 29 29 29 30 30 30 30 31 31 30 29 29 29 29 29 30 30 29 30 30
21 22 22 23 23 24 25 25 26 25 25 25 26 26 26 27 27 29 28 29 28 28 29 28 29 30 30 30 30 31 31 30 30 29 29 28 28 28 28 29 28 29 29
20 21 21 22 22 23 24 25 25 25 24 25 26 27 27 27 28 28 29 29 29 29 28 28 29 29 29 29 29 29 30 30 29 29 28 28 28 28 27 27 27 27 27
20 20 20 20 21 22 24 24 24 23 24 25 26 27 27 27 28 29 29 29 28 28 28 28 28 28 28 28 28 28 28 28 28 28 27 28 27 27 27 26 25 26 26
19 19 19 20 20 21 22 23 23 23 24 25 26 26 26 27 28 29 29 28 27 26 26 26 27 27 27 27 27 27 27 27 26 26 27 26 26 26 26 25 24 24 25
18 19 19 19 20 21 21 22 22 22 23 24 24 25 26 27 27 27 28 27 27 26 25 25 25 25 25 25 25 25 24 24 24 24 25 25 25 25 25 25 24 23 23
17 18 19 19 19 20 20 20 20 22 23 23 23 23 25 25 26 26 26 26 25 24 23 23 23 23 24 24 24 24 23 23 22 22 22 23 23 24 25 24 24 23 22
17 18 18 18 18 19 20 20 20 22 22 22 22 23 23 24 24 24 24 23 23 23 22 22 22 22 23 23 23 23 22 21 20 20 20 21 21 22 22 22 23 23 23
18 18 18 18 17 18 19 18 20 20 21 21 21 22 22 22 22 22 22 22 22 22 22 22 22 21 22 22 22 22 21 20 20 19 19 20 20 20 20 20 20 21 21
18 18 19 19 18 18 18 19 19 20 20 20 21 21 21 20 20 20 20 20 21 21 22 22 21 21 21 21 21 20 20 19 19 19 19 19 20 20 20 20 19 19 20
19 20 20 20 19 19 19 19 19 20 19 19 19 19 19 19 19 19 19 19 20 21 21 20 20 20 20 19 19 19 19 19 19 19 19 19 19 19 19 19 19 18 19
20 21 21 21 20 20 19 19 19 19 18 19 18 18 19 19 19 18 18 19 20 20 20 19 19 19 18 19 19 19 19 18 18 18 18 18 18 18 18 18 18 18 18
21 21 22 22 21 20 20 19 18 18 18 18 17 18 18 18 18 18 18 19 19 19 19 19 18 18 18 18 18 18 19 18 18 18 17 18 17 17 17 17 18 18 18
21 22 22 22 20 19 19 19 18 18 18 18 17 18 17 17 18 18 19 19 18 19 18 18 18 18 18 17 17 17 18 17 17 17 17 16 16 16 16 16 17 17 17
21 21 21 21 20 19 19 18 19 19 18 18 18 18 18 18 18 19 19 19 18 18 19 18 18 18 18 18 17 17 16 16 16 16 15 15 15 15 15 15 15 16 16
20 20 20 19 19 18 19 18 18 17 17 17 17 17 18 18 18 18 19 19 18 18 18 18 18 18 18 18 18 17 16 15 14 14 13 13 13 13 13 13 14 14 14
19 18 18 17 18 18 18 18 18 17 16 17 17 17 18 18 18 18 18 18 18 18 18 18 19 19 18 17 16 15 14 13 13 12 12 12 12 12 12 12 13 13 14
19 18 18 18 17 17 17 17 16 16 16 16 16 17 16 16 17 17 18 18 18 18 18 18 18 18 17 17 16 14 13 12 12 12 12 12 12 12 13 13 13 13 14
19 18 18 18 17 17 16 16 16 15 15 15 15 16 16 16 16 16 17 17 17 17 17 17 17 16 16 15 14 13 12 12 12 12 12 13 13 13 13 13 13 13 13
19 18 17 17 16 16 15 15 14 14 15 14 14 14 15 14 14 14 14 15 16 16 16 15 15 15 15 14 13 13 12 12 12 13 12 13 13 14 14 14 14 14 14
18 17 16 16 14 13 13 13 12 12 12 11 11 12 13 12 11 12 13 13 14 14 14 15 15 15 15 15 14 14 13 12 12 13 13 14 15 15 15 15 15 15 15
16 15 15 14 13 12 11 11 11 10 10 10 10 11 11 10 10 10 12 12 13 13 13 14 13 14 15 15 15 14 14 14 14 15 15 15 15 15 16 16 16 16 16
13 14 13 12 11 11 10 10 9 9 8 9 9 9 9 9 9 9 10 11 12 12 13 13 14 14 15 15 15 15 14 14 15 15 15 16 17 17 18 18 18 19 18
11 11 11 10 9 8 8 7 7 7 7 7 8 7 8 8 8 9 10 11 12 13 13 14 14 15 15 15 15 15 15 15 15 16 16 16 17 17 17 18 18 18 18
10 9 9 9 8 7 6 6 6 6 6 6 6 6 7 7 8 9 10 11 12 12 13 13 14 15 15 15 16 16 16 16 16 16 16 17 17 18 18 18 19 19 19
Wind_Direction
281 283 286 286 287 287 286 286 287 288 289 289 291 292 291 290 289 290 290 289 289 289 290 292 291 290 290 291 290 289 288 287 286 285 283 282 282 283 281 279 276 272 270
281 283 285 286 286 286 287 288 288 289 290 290 293 294 293 292 291 291 291 290 289 290 292 292 291 291 291 292 291 290 288 287 286 286 283 282 283 283 283 281 278 274 271
283 284 283 284 285 285 286 287 289 289 289 289 291 292 294 293 292 292 295 294 291 291 292 292 293 292 291 292 292 290 288 287 285 285 285 284 283 284 282 280 280 276 272
285 285 285 286 285 285 287 289 290 291 291 290 291 295 297 295 295 294 297 296 292 292 293 293 294 294 294 293 293 293 291 286 284 284 285 285 285 284 282 280 280 277 274
285 286 286 287 286 286 288 291 291 292 293 293 293 295 296 296 298 297 297 298 295 294 294 294 293 293 293 293 293 293 290 287 285 283 285 285 285 285 284 282 279 277 273
285 287 287 286 285 286 289 292 292 293 294 294 294 294 295 296 299 300 300 302 298 296 295 294 294 296 297 297 296 295 291 287 285 285 284 284 284 284 284 283 279 275 272
286 286 287 287 285 287 290 293 293 293 294 294 295 295 296 297 300 302 302 302 300 296 295 296 297 298 299 299 298 298 295 290 287 286 285 284 284 284 283 281 279 275 273
287 287 289 289 289 289 292 293 294 295 294 295 297 298 300 301 303 303 303 302 301 298 297 298 298 299 299 300 301 301 297 293 290 289 288 287 287 285 282 279 278 274 273
287 290 292 292 294 293 294 295 295 297 297 296 297 301 302 304 305 306 307 305 303 301 300 300 299 301 302 301 302 301 299 296 291 289 290 289 289 289 286 281 277 274 271
289 290 289 293 293 296 297 297 298 298 298 298 300 302 304 305 305 307 310 310 308 306 304 302 302 302 303 302 301 300 298 297 295 293 293 292 291 292 289 284 282 278 273
293 294 293 292 292 295 296 297 299 300 300 301 301 303 305 305 306 308 312 313 312 310 307 307 305 303 303 304 303 303 302 301 300 297 294 293 293 292 289 286 285 284 280
293 293 293 294 294 294 293 296 297 298 298 300 303 306 307 306 309 312 314 315 314 315 313 312 312 309 308 308 308 306 306 305 303 300 297 295 294 292 288 286 286 285 283
293 293 292 292 294 293 292 294 295 296 297 300 304 308 308 308 311 313 316 317 318 318 318 317 317 315 313 311 310 310 310 308 305 301 299 297 296 294 290 288 287 287 283
293 294 291 290 289 292 294 294 294 295 296 299 302 307 310 311 313 315 317 319 321 321 322 324 321 318 317 314 312 311 310 309 306 302 299 299 298 297 292 289 289 288 284
293 294 293 291 290 291 293 293 292 296 298 299 302 306 310 313 314 316 318 321 323 325 324 323 322 322 321 319 316 314 311 309 308 305 302 300 299 297 295 292 291 289 285
291 292 292 292 290 291 293 292 292 295 296 297 301 306 309 312 315 318 319 320 322 325 325 324 324 323 322 320 319 317 314 311 310 307 306 303 301 299 296 293 291 289 286
290 288 290 290 287 286 287 288 291 294 295 296 300 302 305 309 313 317 319 323 325 324 324 325 324 323 321 321 319 316 316 318 317 314 312 310 308 306 304 301 297 293 290
293 293 292 291 288 286 284 284 287 289 293 295 297 300 301 307 313 316 320 323 325 324 324 323 324 324 324 325 324 321 321 320 319 315 313 316 317 317 315 312 305 300 297
293 293 292 291 289 288 285 283 284 287 290 293 297 301 303 307 311 316 319 322 324 325 326 326 326 327 328 327 328 328 328 327 321 318 317 316 315 314 312 310 307 305 300
291 291 291 290 290 288 285 284 286 287 288 292 296 299 303 306 308 314 318 323 326 327 327 328 330 332 332 331 330 329 327 326 326 325 321 320 317 316 313 311 309 308 305
291 292 291 289 289 287 283 284 284 286 289 291 295 299 305 306 309 313 319 323 326 328 329 332 336 336 337 337 336 335 333 329 326 325 322 319 317 315 314 312 310 307 306
290 291 292 289 288 283 280 280 283 287 289 291 295 302 308 309 313 318 322 325 328 329 332 333 335 338 341 340 338 337 334 330 326 326 325 323 321 320 318 316 315 312 308
290 290 291 290 286 279 277 278 284 288 291 293 293 301 306 313 321 324 325 326 328 333 337 337 337 338 340 342 340 335 333 330 326 325 325 324 323 321 320 318 316 315 313
287 290 290 289 284 278 275 276 285 289 293 294 295 304 311 317 322 327 332 336 338 337 339 343 342 342 342 342 342 340 335 332 331 330 328 326 325 322 323 323 321 321 320
287 291 290 286 286 278 274 274 284 289 296 300 302 308 318 324 331 336 337 337 339 340 340 340 342 342 343 344 345 344 343 340 336 333 332 331 331 329 327 326 324 322 319
285 287 286 282 287 281 275 274 285 293 300 302 311 318 322 332 340 341 340 339 339 340 340 340 342 343 344 344 344 344 345 344 341 338 337 334 333 332 331 330 328 326 323
Height
5853 5852 5851 5850 5848 5847 5845 5843 5841 5839 5836 5834 5831 5829 5827 5825 5823 5821 5818 5816 5814 5812 5810 5808 5805 5802 5800 5797 5795 5792 5790 5788 5785 5783 5781 5780 5778 5776 5775 5774 5773 5772 5772
5848 5847 5846 5845 5843 5842 5840 5838 5836 5833 5831 5828 5826 5824 5821 5819 5817 5814 5812 5810 5807 5805 5803 5800 5798 5795 5793 5790 5788 5785 5782 5780 5777 5775 5773 5772 5771 5768 5767 5765 5764 5764 5763
5843 5842 5841 5840 5838 5837 5835 5833 5830 5828 5825 5823 5821 5818 5816 5814 5811 5808 5806 5803 5801 5798 5796 5793 5791 5788 5786 5783 5780 5777 5774 5772 5770 5767 5766 5764 5763 5761 5759 5757 5756 5755 5755
5838 5837 5836 5835 5833 5831 5829 5827 5825 5822 5820 5818 5815 5813 5810 5808 5805 5802 5799 5797 5794 5791 5789 5786 5784 5781 5778 5775 5772 5769 5766 5763 5761 5760 5758 5756 5755 5753 5752 5750 5748 5747 5747
5833 5832 5831 5830 5828 5826 5824 5822 5820 5818 5815 5813 5810 5808 5805 5802 5799 5796 5793 5790 5787 5785 5782 5780 5777 5774 5771 5768 5765 5761 5758 5755 5754 5752 5750 5749 5747 5745 5744 5743 5742 5741 5740
5829 5827 5826 5825 5823 5821 5819 5817 5815 5813 5810 5808 5806 5803 5800 5797 5793 5790 5787 5784 5781 5778 5775 5773 5770 5767 5764 5761 5757 5754 5750 5748 5746 5744 5743 5741 5740 5738 5737 5736 5735 5734 5734
5825 5823 5822 5820 5819 5817 5815 5813 5810 5808 5806 5803 5800 5797 5795 5791 5788 5785 5782 5778 5775 5772 5769 5766 5763 5760 5757 5754 5751 5747 5744 5741 5739 5738 5736 5735 5733 5732 5730 5729 5729 5728 5728
5821 5819 5817 5816 5814 5812 5810 5808 5806 5803 5801 5798 5795 5792 5789 5786 5783 5779 5776 5772 5769 5766 5763 5760 5757 5754 5751 5748 5744 5741 5738 5735 5733 5731 5730 5728 5727 5725 5724 5723 5723 5722 5722
5817 5815 5813 5811 5810 5808 5805 5803 5801 5799 5796 5793 5790 5787 5784 5781 5778 5774 5771 5767 5764 5761 5758 5754 5751 5748 5745 5742 5739 5735 5733 5730 5728 5726 5724 5723 5721 5720 5718 5717 5717 5717 5716
5812 5810 5808 5807 5805 5803 5801 5799 5796 5794 5791 5788 5786 5783 5779 5776 5773 5770 5767 5763 5759 5756 5753 5749 5746 5743 5740 5736 5733 5730 5727 5725 5722 5721 5719 5718 5716 5715 5713 5712 5711 5710 5710
5807 5805 5803 5802 5800 5798 5796 5794 5792 5789 5787 5784 5781 5778 5775 5772 5769 5766 5762 5759 5755 5751 5747 5744 5740 5737 5734 5731 5728 5725 5722 5720 5718 5716 5714 5713 5712 5710 5708 5707 5706 5705 5704
5802 5800 5798 5797 5795 5793 5791 5790 5787 5785 5782 5780 5777 5774 5771 5768 5765 5761 5758 5754 5751 5747 5743 5739 5735 5732 5729 5726 5723 5721 5718 5715 5713 5712 5710 5708 5707 5705 5703 5702 5701 5700 5699
5797 5795 5793 5792 5790 5788 5787 5785 5782 5780 5778 5775 5772 5770 5767 5764 5761 5757 5754 5750 5747 5743 5739 5735 5732 5729 5726 5723 5720 5717 5714 5711 5709 5707 5705 5704 5702 5700 5699 5697 5696 5695 5694
5792 5790 5788 5786 5785 5783 5781 5779 5778 5775 5773 5771 5768 5766 5763 5760 5757 5754 5750 5747 5743 5740 5736 5732 5729 5725 5722 5719 5716 5713 5710 5708 5705 5703 5701 5699 5697 5695 5694 5693 5692 5690 5689
5786 5784 5782 5780 5779 5777 5776 5774 5772 5770 5768 5766 5764 5761 5759 5756 5754 5751 5747 5743 5740 5737 5733 5729 5726 5722 5719 5716 5713 5710 5707 5704 5702 5699 5697 5695 5693 5691 5690 5688 5687 5686 5684
5780 5778 5776 5775 5773 5772 5770 5769 5767 5765 5764 5762 5760 5758 5755 5753 5750 5747 5744 5741 5737 5734 5730 5726 5723 5719 5716 5713 5710 5707 5704 5701 5698 5696 5693 5691 5690 5688 5686 5684 5683 5681 5680
5774 5772 5771 5769 5767 5766 5765 5763 5762 5760 5759 5757 5755 5754 5752 5749 5747 5744 5741 5738 5734 5731 5727 5724 5720 5717 5713 5710 5707 5703 5700 5698 5695 5693 5691 5688 5686 5685 5683 5681 5679 5677 5676
5767 5766 5764 5763 5762 5760 5759 5758 5756 5755 5754 5753 5751 5749 5748 5746 5743 5740 5738 5734 5731 5728 5725 5721 5718 5714 5710 5707 5703 5700 5697 5695 5693 5690 5688 5686 5684 5682 5680 5678 5676 5674 5672
5761 5759 5758 5756 5755 5754 5753 5752 5751 5750 5750 5748 5747 5745 5744 5742 5740 5737 5734 5731 5728 5725 5722 5718 5715 5711 5707 5704 5701 5698 5695 5693 5690 5688 5686 5684 5682 5679 5677 5675 5673 5671 5669
5755 5753 5752 5750 5749 5748 5747 5747 5746 5746 5745 5744 5742 5741 5740 5738 5736 5734 5731 5728 5725 5722 5719 5716 5712 5708 5705 5701 5698 5696 5693 5691 5689 5686 5684 5681 5679 5676 5674 5672 5669 5667 5665
5748 5747 5746 5744 5744 5743 5742 5742 5741 5741 5740 5739 5738 5736 5735 5734 5732 5730 5728 5725 5723 5720 5716 5713 5710 5706 5703 5699 5696 5694 5691 5689 5686 5684 5681 5678 5676 5673 5671 5668 5666 5664 5662
5742 5741 5740 5739 5738 5738 5737 5737 5736 5736 5735 5735 5734 5733 5731 5730 5728 5727 5725 5723 5720 5717 5714 5711 5708 5704 5701 5698 5695 5692 5689 5686 5684 5681 5679 5676 5673 5670 5668 5665 5663 5660 5658
5736 5735 5734 5734 5733 5733 5733 5733 5733 5732 5731 5731 5730 5729 5728 5727 5725 5724 5722 5720 5717 5715 5712 5709 5706 5703 5699 5696 5693 5690 5687 5684 5681 5678 5676 5673 5670 5667 5665 5662 5659 5656 5654
5731 5730 5729 5729 5729 5728 5729 5729 5729 5728 5728 5727 5727 5726 5725 5724 5723 5721 5720 5717 5715 5713 5710 5707 5704 5701 5698 5694 5691 5688 5685 5681 5678 5676 5673 5670 5667 5664 5661 5658 5655 5652 5649
5727 5726 5725 5725 5725 5725 5725 5725 5726 5725 5725 5725 5724 5723 5723 5722 5721 5719 5717 5715 5713 5711 5708 5705 5702 5699 5696 5692 5689 5686 5682 5679 5676 5673 5670 5667 5664 5661 5658 5654 5651 5648 5645
5723 5723 5722 5722 5722 5722 5722 5723 5723 5723 5722 5722 5721 5721 5720 5720 5719 5717 5715 5713 5711 5709 5706 5703 5700 5697 5694 5690 5687 5684 5680 5677 5674 5671 5667 5664 5661 5658 5654 5651 5648 5644 5641